User: anonymous   Login
Location: Holkham
(52.9500°N, 0.8167°E)
Time: 02:02:05
(UTC+00:00)
Language:

Cosmos 1833 Rocket - Orbit

View from above orbital plane
View from above orbital plane
View from above satellite
View from above satellite

Ground track
Ground track

The orbit data is extracted from the following two-line orbital elements,

1 17590U 87027B   25191.37224125 -.00000201  00000-0 -76152-4 0  9990
2 17590  71.0031  67.0983 0003676 154.6261 205.5044 14.17123661981051
Epoch (UTC): 10 July 2025 08:56:01
Eccentricity: 0.0003676
inclination: 71.0031°
perigee height: 832 km
apogee height: 838 km
right ascension of ascending node: 67.0983°
argument of perigee: 154.6261°
revolutions per day: 14.17123661
mean anomaly at epoch: 205.5044°
orbit number at epoch: 98105

The dashed part of the orbit path shows where the satellite is in the earth's shadow,  

DLR